STARLINK-33848 (63705 NORAD) Tracking and Keplerian Element Data

This shows tracking and keplerian element data for the satellite.

Feedback or suggestion? Click here.




ElementValue
Catalog63705
NameSTARLINK-33848
Epoch Orbit3698
Epoch Day353.95235858
Epoch Year2025
RAAN229.7742
Inclination53.157
Eccentricity0.0001375
Argument of Perigee89.769
Mean Anonmoly270.3468
Mean Motion15.30199619
Decay Rate8.729E-05
L11 63705U 25087J 25353.95235858 .00008729 00000+0 30649-3 0 9996
L22 63705 53.1570 229.7742 0001375 89.7690 270.3468 15.30199619 36982



Live tracking and technical data element details for STARLINK-33848 (NORAD 63705). STARLINK-33848 can be tracked NOW for your location showing map with azimuth and elevation plus other details from your city location.







IsCatalogInMostPopularTable: catalog: 63705, numindb: 9
Update: records affected: 1



GetName: 63705 STARLINK-33848

Hit Count: updated at: Tue, 21 Apr 2026 19:44:41 GMT